Flag for Sweden

Past Weather in Helsingborg, Sweden — Yesterday and Last 2 Weeks

Currently: 21 °F. Low clouds. (Weather station: Ljungbyhed, Sweden). See more current weather

Past Weather in Helsingborg — Graph

°F

Helsingborg Temperature Yesterday

Maximum temperature yesterday: 27 °F (at 12:20 am)
Minimum temperature yesterday: 7 °F (at 11:20 pm)
Average temperature yesterday: 18 °F

High & Low Weather Summary for the Past Weeks

 TemperatureHumidityPressure
High41 °F (Jan 11, 3:20 pm)100% (Jan 1, 9:20 pm)30.30 "Hg (Jan 1, 9:20 pm)
Low5 °F (Jan 16, 3:20 am)70% (Jan 5, 6:20 pm)29.30 "Hg (Jan 12, 1:20 am)
Average31 °F94%29.97 "Hg
* Reported Jan 1 9:20 pm — Jan 16 9:50 pm, Helsingborg. Weather by CustomWeather, © 2021

Note: Actual official high and low records may vary slightly from our data, if they occured in-between our weather recording intervals... More about our weather records

Helsingborg Weather History for the Previous 24 Hours

Scroll right to see more
 ConditionsComfort  
Time TempWeatherWind HumidityBarometerVisibility
9:50 pm
Sat, Jan 16
19 °FLow clouds.No wind100%30.09 "HgN/A
9:20 pm19 °FLow clouds.2 mph100%30.09 "HgN/A
8:50 pm18 °FPassing clouds.1 mph93%30.09 "HgN/A
8:20 pm18 °FLight fog.1 mph100%30.09 "Hg2 mi
7:50 pm18 °FIce fog.No wind100%30.09 "HgN/A
7:20 pm19 °FPassing clouds.No wind93%30.09 "HgN/A
6:50 pm19 °FIce fog.No wind100%30.09 "HgN/A
6:20 pm21 °FCold.No wind93%30.09 "HgN/A
5:50 pm21 °FCold.2 mph100%30.09 "HgN/A
5:20 pm23 °FPassing clouds.7 mph86%30.09 "HgN/A
4:50 pm25 °FPassing clouds.8 mph86%30.09 "HgN/A
4:20 pm25 °FPassing clouds.7 mph80%30.12 "HgN/A
3:50 pm25 °FCold.9 mph86%30.12 "HgN/A
3:20 pm27 °FChilly.9 mph86%30.12 "HgN/A
2:50 pm27 °FChilly.9 mph93%30.12 "HgN/A
2:20 pm27 °FChilly.10 mph93%30.12 "HgN/A
1:50 pm27 °FChilly.9 mph93%30.12 "HgN/A
1:20 pm25 °FCold.10 mph100%30.15 "HgN/A
12:50 pm25 °FCold.9 mph100%30.15 "HgN/A
12:20 pm23 °FCold.10 mph100%30.15 "HgN/A
11:50 am23 °FCold.9 mph100%30.15 "HgN/A
11:20 am23 °FCold.8 mph100%30.18 "HgN/A
10:50 am21 °FCold.5 mph100%30.18 "HgN/A
10:20 am21 °FScattered clouds.5 mph93%30.18 "HgN/A
9:50 am19 °FIce fog.3 mph100%30.18 "Hg1 mi
9:20 am21 °FIce fog.5 mph93%30.21 "Hg1 mi
8:50 am19 °FIce fog.3 mph100%30.18 "HgN/A
8:20 am16 °FLow clouds.1 mph100%30.21 "HgN/A
7:50 am14 °FLow clouds.No wind92%30.21 "HgN/A
7:20 am12 °FMostly cloudy.2 mph92%30.21 "HgN/A
6:50 am10 °FPassing clouds.2 mph92%30.24 "HgN/A
6:20 am10 °FCold.2 mph92%30.24 "HgN/A
5:50 am10 °FCold.No wind92%30.24 "HgN/A
5:20 am10 °FCold.No wind92%30.24 "HgN/A
4:50 am9 °FFrigid.1 mph92%30.24 "HgN/A
4:20 am7 °FFrigid.5 mph92%30.27 "HgN/A
3:50 am9 °FPassing clouds.No wind92%30.27 "HgN/A
3:20 am5 °FFrigid.3 mph85%30.27 "HgN/A
2:50 am9 °FFrigid.No wind92%30.30 "HgN/A
2:20 am7 °FFrigid.No wind92%30.27 "HgN/A
1:50 am7 °FFrigid.No wind92%30.27 "HgN/A
1:20 am9 °FFrigid.No wind92%30.30 "HgN/A
12:50 am9 °FFrigid.No wind85%30.30 "HgN/A
12:20 am9 °FFrigid.1 mph92%30.30 "HgN/A
11:50 pm
Fri, Jan 15
9 °FFrigid.No wind85%30.30 "HgN/A
11:20 pm7 °FFrigid.No wind92%30.30 "HgN/A
10:50 pm10 °FIce fog.No wind92%30.30 "HgN/A
10:20 pm10 °FCold.No wind92%30.30 "HgN/A
Weather by CustomWeather, © 2021

See weather overview